Regional Weather Roundup
Issued by NWS

Home | Current Version | Previous Version | Graphics & Text | Print | Product List | Glossary On
Versions: 1 2 3 4 5 6 7 8 9 10 11 12 13 14 15 16 17 18 19 20 21 22 23 24 25 26 27 28 29 30 31 32 33 34 35 36 37 38 39 40 41 42 43 44 45 46 47 48 49 50
000
ASUS43 KTOP 071208
RWRKS

WEATHER ROUNDUP FOR KANSAS
NATIONAL WEATHER SERVICE GOODLAND KS
700 AM CDT TUE JUL 07 2015

NOTE:  "FAIR" INDICATES FEW OR NO CLOUDS BELOW 12,000 FEET WITH NO
SIGNIFICANT WEATHER AND/OR OBSTRUCTIONS TO VISIBILITY.

KSZ001>006-013>018-027>032-041>047-071300-
NORTHWEST KANSAS

CITY           SKY/WX    TMP DP  RH WIND       PRES   REMARKS
GOODLAND       CLEAR     52  50  93 E6        30.22R FOG
6HR MIN TEMP:  52; 6HR MAX TEMP:  63;

HAYS           PTCLDY    59  50  72 NE12      30.14S
HILL CITY      CLEAR     57  54  89 N10       30.18R FOG
6HR MIN TEMP:  56; 6HR MAX TEMP:  65;

RUSSELL        MOCLDY    60  57  89 N12       30.12R FOG
6HR MIN TEMP:  59; 6HR MAX TEMP:  69;

$$

KSZ061>065-074>080-084>089-071300-
SOUTHWEST KANSAS

CITY           SKY/WX    TMP DP  RH WIND       PRES   REMARKS
DODGE CITY     MOCLDY    59  55  87 N13       30.13R FOG
6HR MIN TEMP:  59; 6HR MAX TEMP:  68;

ELKHART          N/A     62  51  67 NE14        N/A
GARDEN CITY    CLOUDY    58  54  86 NE10      30.16R FOG
6HR MIN TEMP:  58; 6HR MAX TEMP:  65;

GREAT BEND     CLOUDY    61  54  77 N14       30.12R
LIBERAL        CLOUDY    64  55  72 NE15      30.16R
PRATT          CLOUDY    64  59  82 NE16G23   30.08R HAZE
$$

KSZ066>073-081>083-090>101-071300-
SOUTHEAST KANSAS

CITY           SKY/WX    TMP DP  RH WIND       PRES   REMARKS
CHANUTE        CLOUDY    66  64  93 N10G20    29.98R
6HR MIN TEMP:  66; 6HR MAX TEMP:  73; 6HR PCP:  0.09;

COFFEYVILLE    MOCLDY    72  71  97 W5        29.95R
6HR MIN TEMP:  71; 6HR MAX TEMP:  73; 6HR PCP: TRACE;

HUTCHINSON     CLOUDY    67  61  81 N10       30.06R HAZE
6HR MIN TEMP:  67; 6HR MAX TEMP:  69;

MEDICINE LODGE   N/A     65  63  93 NE10      30.05R
NEWTON         CLOUDY    63  57  82 NE8       30.06R
PARSONS        CLOUDY    69  68  96 N8        29.97R
6HR MIN TEMP:  69; 6HR MAX TEMP:  73;

WICHITA INTL   RAIN      65  62  90 N17       30.02R VSB 1
6HR MIN TEMP:  65; 6HR MAX TEMP:  72; 6HR PCP:  0.51;

WICHITA JABRA  RAIN      63  63 100 NE20G29   30.02R FOG
6HR MIN TEMP:  63; 6HR MAX TEMP:  69; 6HR PCP:  0.42;

WICHITA MCCONL LGT RAIN  64  63  94 NE16      30.03R FOG
WINFIELD       CLOUDY    65  62  90 NE14      30.02R
6HR MIN TEMP:  65; 6HR MAX TEMP:  71; 6HR PCP:  0.03;

$$

KSZ007>012-019>026-033>040-048>060-102>105-071300-
NORTHEAST KANSAS

CITY           SKY/WX    TMP DP  RH WIND       PRES   REMARKS
CONCORDIA      MOCLDY    59  52  77 NE8       30.13R HAZE
6HR MIN TEMP:  59; 6HR MAX TEMP:  67;

EMPORIA        LGT RAIN  62  60  93 NE10      30.04R FOG
6HR MIN TEMP:  62; 6HR MAX TEMP:  66; 6HR PCP:  0.20;

LAWRENCE       LGT RAIN  63  61  93 NE3       30.03R FOG
6HR MIN TEMP:  62; 6HR MAX TEMP:  68; 6HR PCP:  0.97;

MANHATTAN      PTCLDY    63  57  81 N12       30.07R
6HR MIN TEMP:  63; 6HR MAX TEMP:  70;

MARYSVILLE     MOCLDY    59  52  77 N8        30.11R
OLATHE IND     CLOUDY    62  60  93 NE13      30.02S FOG
6HR MIN TEMP:  60; 6HR MAX TEMP:  71; 6HR PCP:  0.70;

OLATHE EXE     CLOUDY    61  59  93 NE16      30.01S FOG
6HR MIN TEMP:  60; 6HR MAX TEMP:  71; 6HR PCP:  0.51;

SALINA         CLOUDY    65  57  75 N14       30.09R HAZE
6HR MIN TEMP:  65; 6HR MAX TEMP:  72;

TOPEKA BILLARD CLOUDY    65  62  90 N8        30.04R FOG
6HR MIN TEMP:  63; 6HR MAX TEMP:  65; 6HR PCP:  1.80;

TOPEKA FORBES  CLOUDY    66  62  87 N6        30.04R FOG
6HR MIN TEMP:  63; 6HR MAX TEMP:  67; 6HR PCP:  0.98;

$$



USA.gov is the U.S. government's official web portal to all federal, state and local government web resources and services.